CWOP Weather Reports


Display with metric or nautical units.
time (UTC)temp
F
wind
direction
speed
MPH
gust
MPH
rain 1hr
in
rain 24hr
in
rain mn
in
humidity
%
barometer
mb
20260504024006 44 109 0.0 3.0 0.00 0.00 0.00 73 1018.7
20260504023506 45 109 0.0 2.0 0.00 0.00 0.00 73 1018.7
20260504023019 45 109 0.0 2.0 0.00 0.00 0.00 72 1018.7
20260504022508 45 109 1.0 2.0 0.00 0.00 0.00 71 1018.7
20260504022004 46 109 0.0 2.0 0.00 0.00 0.00 70 1018.6
20260504021509 46 109 0.0 2.0 0.00 0.00 0.00 69 1018.5
20260504021003 47 111 1.0 2.0 0.00 0.00 0.00 69 1018.3
20260504020504 47 116 0.0 2.0 0.00 0.00 0.00 68 1018.3
20260504020020 47 116 0.0 2.0 0.00 0.00 0.00 67 1018.3
20260504015507 47 116 0.0 0.0 0.00 0.00 0.00 66 1018.2
20260504015006 48 116 0.0 0.0 0.00 0.00 0.00 66 1018.1
20260504014522 48 116 0.0 2.0 0.00 0.00 0.00 66 1018.1
20260504014002 48 116 0.0 2.0 0.00 0.00 0.00 65 1018.2
20260504013505 48 115 0.0 2.0 0.00 0.00 0.00 64 1018.2
20260504013011 49 107 1.0 2.0 0.00 0.00 0.00 63 1018.1
20260504012506 50 92 1.0 2.0 0.00 0.00 0.00 60 1018.1
20260504012007 51 102 0.0 2.0 0.00 0.00 0.00 59 1018.1
20260504011519 52 102 1.0 2.0 0.00 0.00 0.00 55 1018.0
20260504011007 53 81 0.0 2.0 0.00 0.00 0.00 53 1018.0
20260504010514 54 321 0.0 2.0 0.00 0.00 0.00 50 1017.9
20260504010004 55 312 0.0 2.0 0.00 0.00 0.00 46 1017.7
20260504005504 55 321 0.0 2.0 0.00 0.00 0.00 46 1017.7
20260504005003 55 321 0.0 2.0 0.00 0.00 0.00 45 1017.6
20260504004532 55 308 1.0 2.0 0.00 0.00 0.00 45 1017.5
20260504004006 56 298 0.0 2.0 0.00 0.00 0.00 46 1017.4
20260504003507 57 292 0.0 2.0 0.00 0.00 0.00 44 1017.4
20260504003019 57 302 0.0 2.0 0.00 0.00 0.00 43 1017.4
20260504002507 58 302 0.0 2.0 0.00 0.00 0.00 42 1017.4
20260504002002 58 302 1.0 2.0 0.00 0.00 0.00 41 1017.3
20260504001523 59 208 1.0 2.0 0.00 0.00 0.00 39 1017.4
20260504001003 59 208 0.0 3.0 0.00 0.00 0.00 40 1017.3
20260504000509 59 274 1.0 3.0 0.00 0.00 0.00 39 1017.3
20260504000016 60 317 1.0 3.0 0.00 0.00 0.00 38 1017.3
20260503235506 60 128 0.0 4.0 0.00 0.00 0.00 39 1017.4
20260503235007 60 284 1.0 5.0 0.00 0.00 0.00 39 1017.3
20260503234527 61 251 1.0 8.0 0.00 0.00 0.00 39 1017.3
20260503234003 62 271 4.0 8.0 0.00 0.00 0.00 38 1017.3
20260503233504 62 284 1.0 5.0 0.00 0.00 0.00 40 1017.3
20260503233013 63 289 1.0 5.0 0.00 0.00 0.00 39 1017.2
20260503232507 63 261 2.0 7.0 0.00 0.00 0.00 39 1017.2
20260503232007 63 250 2.0 7.0 0.00 0.00 0.00 39 1017.2
20260503231522 63 340 2.0 7.0 0.00 0.00 0.00 39 1017.2
20260503231008 64 300 2.0 10.0 0.00 0.00 0.00 39 1017.1
20260503230508 64 315 2.0 10.0 0.00 0.00 0.00 38 1017.1
20260503230008 64 267 4.0 9.0 0.00 0.00 0.00 37 1017.1
20260503225503 64 270 2.0 9.0 0.00 0.00 0.00 37 1017.1
20260503225006 64 225 3.0 8.0 0.00 0.00 0.00 36 1017.1
20260503224513 64 257 1.0 8.0 0.00 0.00 0.00 39 1017.1
20260503224008 65 252 4.0 8.0 0.00 0.00 0.00 36 1017.1
20260503223508 65 316 3.0 7.0 0.00 0.00 0.00 38 1017.1
20260503223023 65 237 3.0 7.0 0.00 0.00 0.00 36 1017.1
20260503222507 65 350 3.0 7.0 0.00 0.00 0.00 36 1017.1
20260503222003 66 5 4.0 7.0 0.00 0.00 0.00 36 1017.1
20260503221510 66 209 3.0 9.0 0.00 0.00 0.00 36 1017.1
20260503221009 66 264 3.0 9.0 0.00 0.00 0.00 35 1017.1
20260503220510 67 286 3.0 6.0 0.00 0.00 0.00 37 1017.1
20260503220029 67 239 1.0 8.0 0.00 0.00 0.00 36 1017.2
20260503215507 67 275 1.0 8.0 0.00 0.00 0.00 36 1017.2
20260503215012 67 212 3.0 9.0 0.00 0.00 0.00 36 1017.2
20260503214536 66 304 4.0 9.0 0.00 0.00 0.00 34 1017.2
20260503214003 67 288 3.0 9.0 0.00 0.00 0.00 33 1017.3
20260503213506 67 328 3.0 9.0 0.00 0.00 0.00 35 1017.2
20260503213027 67 318 4.0 8.0 0.00 0.00 0.00 34 1017.2
20260503212507 67 5 2.0 6.0 0.00 0.00 0.00 35 1017.2
20260503212015 67 53 1.0 7.0 0.00 0.00 0.00 30 1017.3
20260503211523 67 263 1.0 7.0 0.00 0.00 0.00 33 1017.4
20260503211013 67 317 2.0 7.0 0.00 0.00 0.00 35 1017.4
20260503210510 67 290 2.0 7.0 0.00 0.00 0.00 33 1017.5
20260503210014 67 278 2.0 7.0 0.00 0.00 0.00 34 1017.5
20260503205509 67 254 1.0 7.0 0.00 0.00 0.00 34 1017.6
20260503205007 67 28 2.0 8.0 0.00 0.00 0.00 35 1017.6
20260503204525 67 240 4.0 8.0 0.00 0.00 0.00 34 1017.7
20260503204010 66 175 1.0 8.0 0.00 0.00 0.00 32 1017.8
20260503203511 66 5 3.0 6.0 0.00 0.00 0.00 33 1017.8
20260503203025 66 317 3.0 6.0 0.00 0.00 0.00 33 1018.0
20260503202518 66 338 2.0 7.0 0.00 0.00 0.00 37 1018.0
20260503202006 66 293 2.0 7.0 0.00 0.00 0.00 33 1018.1
20260503201514 66 277 3.0 7.0 0.00 0.00 0.00 33 1018.2
20260503201009 66 82 3.0 6.0 0.00 0.00 0.00 31 1018.2
20260503200510 66 10 1.0 9.0 0.00 0.00 0.00 37 1018.3
20260503200023 65 210 2.0 9.0 0.00 0.00 0.00 33 1018.4
20260503195508 65 211 5.0 9.0 0.00 0.00 0.00 36 1018.5
20260503195012 65 215 4.0 11.0 0.00 0.00 0.00 34 1018.6
20260503194529 65 296 1.0 11.0 0.00 0.00 0.00 33 1018.6
20260503194006 65 227 3.0 9.0 0.00 0.00 0.00 34 1018.7
20260503193506 65 245 4.0 11.0 0.00 0.00 0.00 34 1018.8
20260503193017 64 230 2.0 11.0 0.00 0.00 0.00 32 1018.9
20260503192508 64 346 3.0 11.0 0.00 0.00 0.00 32 1018.9
20260503192007 64 226 6.0 11.0 0.00 0.00 0.00 34 1019.1
20260503191524 64 202 6.0 13.0 0.00 0.00 0.00 38 1019.1
20260503191009 64 213 3.0 13.0 0.00 0.00 0.00 37 1019.1
20260503190507 64 146 4.0 11.0 0.00 0.00 0.00 39 1019.2
20260503190016 64 336 2.0 10.0 0.00 0.00 0.00 38 1019.3
20260503185506 64 249 3.0 10.0 0.00 0.00 0.00 37 1019.2
20260503185008 64 261 5.0 10.0 0.00 0.00 0.00 38 1019.2
20260503184524 64 201 4.0 7.0 0.00 0.00 0.00 39 1019.3
20260503184009 63 215 5.0 8.0 0.00 0.00 0.00 39 1019.3
20260503183508 63 272 4.0 11.0 0.00 0.00 0.00 35 1019.4
20260503183034 63 274 6.0 11.0 0.00 0.00 0.00 36 1019.4
20260503182507 63 306 4.0 10.0 0.00 0.00 0.00 35 1019.4
20260503182006 62 254 4.0 8.0 0.00 0.00 0.00 38 1019.5
20260503181537 62 5 5.0 8.0 0.00 0.00 0.00 39 1019.5
20260503181007 62 315 4.0 10.0 0.00 0.00 0.00 41 1019.7
20260503180507 62 254 5.0 9.0 0.00 0.00 0.00 41 1019.7
20260503180015 61 352 3.0 7.0 0.00 0.00 0.00 42 1019.8
20260503175511 61 352 2.0 7.0 0.00 0.00 0.00 38 1019.8
20260503175002 61 10 2.0 6.0 0.00 0.00 0.00 38 1019.8
20260503174507 61 313 2.0 8.0 0.00 0.00 0.00 38 1019.8
20260503174005 61 300 5.0 8.0 0.00 0.00 0.00 39 1019.9
20260503173505 61 216 4.0 7.0 0.00 0.00 0.00 38 1020.0
20260503173009 60 279 2.0 7.0 0.00 0.00 0.00 45 1020.0
20260503172505 60 351 3.0 7.0 0.00 0.00 0.00 39 1020.1
20260503172006 60 224 2.0 7.0 0.00 0.00 0.00 36 1020.1
20260503171505 60 157 1.0 5.0 0.00 0.00 0.00 37 1020.2
20260503171003 60 156 1.0 5.0 0.00 0.00 0.00 38 1020.3
20260503170504 60 177 3.0 5.0 0.00 0.00 0.00 41 1020.3
20260503151005 54 320 2.0 6.0 0.00 0.00 0.00 53 1021.1
20260503150505 54 13 4.0 6.0 0.00 0.00 0.00 53 1021.1
20260503131007 48 346 1.0 3.0 0.00 0.00 0.00 78 1021.0
20260503130507 47 15 1.0 3.0 0.00 0.00 0.00 79 1021.0
20260503110510 36 55 1.0 4.0 0.00 0.00 0.00 94 1019.8
20260503090507 35 79 0.0 2.0 0.00 0.00 0.00 90 1018.6
20260503081507 36 121 0.0 2.0 0.00 0.00 0.00 90 1018.2
20260503081006 36 121 0.0 3.0 0.00 0.00 0.00 90 1018.2
20260503080504 36 80 1.0 3.0 0.00 0.00 0.00 91 1018.2
20260503072503 37 96 0.0 2.0 0.00 0.00 0.00 88 1018.0
20260503072009 37 96 1.0 2.0 0.00 0.00 0.00 88 1017.9
20260503071517 37 87 0.0 0.0 0.00 0.00 0.00 89 1017.8
20260503071005 37 87 0.0 0.0 0.00 0.00 0.00 89 1017.8
20260503070507 37 87 0.0 0.0 0.00 0.00 0.00 89 1017.7
20260503055006 39 92 0.0 3.0 0.00 0.00 0.00 85 1017.6
20260503054526 39 94 2.0 3.0 0.00 0.00 0.00 85 1017.6
20260503054006 39 102 0.0 2.0 0.00 0.00 0.00 85 1017.6
20260503053505 40 102 0.0 2.0 0.00 0.00 0.00 84 1017.6
20260503053015 40 102 0.0 2.0 0.00 0.00 0.00 84 1017.6
20260503052506 40 102 0.0 2.0 0.00 0.00 0.00 83 1017.6
20260503052010 40 113 0.0 3.0 0.00 0.00 0.00 82 1017.6
20260503051518 40 114 2.0 3.0 0.00 0.00 0.00 82 1017.6
20260503051007 41 79 0.0 2.0 0.00 0.00 0.00 82 1017.7
20260503050507 41 79 0.0 2.0 0.00 0.00 0.00 81 1017.7
20260503050018 41 79 0.0 2.0 0.00 0.00 0.00 81 1017.7
20260503045504 41 79 1.0 2.0 0.00 0.00 0.00 81 1017.7
20260503045006 41 79 0.0 2.0 0.00 0.00 0.00 81 1017.7
20260503044512 41 74 0.0 2.0 0.00 0.00 0.00 82 1017.6
20260503044006 41 74 0.0 2.0 0.00 0.00 0.00 82 1017.5
20260503043505 41 74 0.0 2.0 0.00 0.00 0.00 83 1017.6
20260503043020 42 74 0.0 2.0 0.00 0.00 0.00 83 1017.6
20260503042506 42 74 1.0 1.0 0.00 0.00 0.00 82 1017.7
20260503042006 41 67 0.0 2.0 0.00 0.00 0.00 81 1017.7
20260503041508 41 67 0.0 2.0 0.00 0.00 0.00 81 1017.6
20260503041006 42 67 0.0 2.0 0.00 0.00 0.00 81 1017.5
20260503040511 41 67 0.0 2.0 0.00 0.00 0.00 80 1017.5
20260503040027 41 67 0.0 0.0 0.00 0.00 0.00 78 1017.5
20260503035509 42 67 0.0 2.0 0.00 0.00 0.00 78 1017.4
20260503035007 42 67 0.0 2.0 0.00 0.00 0.00 79 1017.3
20260503034519 42 71 0.0 2.0 0.00 0.00 0.00 78 1017.2
20260503034009 42 71 0.0 2.0 0.00 0.00 0.00 77 1017.1
20260503033508 42 69 1.0 2.0 0.00 0.00 0.00 77 1017.1
20260503033013 42 69 0.0 0.0 0.00 0.00 0.00 76 1017.1
20260503032507 42 69 0.0 0.0 0.00 0.00 0.00 76 1017.0
20260503032007 42 69 0.0 1.0 0.00 0.00 0.00 76 1017.0
20260503031520 42 69 0.0 2.0 0.00 0.00 0.00 75 1016.9
20260503031010 43 69 0.0 2.0 0.00 0.00 0.00 75 1016.8
20260503030507 43 69 0.0 2.0 0.00 0.00 0.00 74 1016.8
20260503030023 43 69 0.0 2.0 0.00 0.00 0.00 73 1016.7
20260503025508 44 69 1.0 2.0 0.00 0.00 0.00 72 1016.8
20260503025006 44 69 0.0 0.0 0.00 0.00 0.00 71 1016.8
20260503024516 44 69 0.0 1.0 0.00 0.00 0.00 71 1016.7